This is the latest recevied weather packets stored in our database for station/object KV4OP. If no packets are shown the sender has not sent any weather packets the latest 10 day(s).
| Time | Temp. | Humidity | Pressure | Rain* | Wind** | Luminosity | Snow |
|---|---|---|---|---|---|---|---|
| 1777919412 | 26.67° C | 56% | 1017 hPa | 0 mm | - | - | - |
| 1777918211 | 27.78° C | 54% | 1017 hPa | 0 mm | - | - | - |
| 1777917613 | 27.22° C | 54% | 1017 hPa | 0 mm | - | - | - |
| 1777915810 | 27.78° C | 51% | 1017.2 hPa | 0 mm | - | - | - |
| 1777915210 | 27.22° C | 52% | 1017.1 hPa | 0 mm | - | - | - |
| 1777914309 | 28.33° C | 50% | 1017.3 hPa | 0 mm | - | - | - |
| 1777911005 | 28.33° C | 54% | 1017.7 hPa | 0 mm | - | - | - |
| 1777910103 | 27.78° C | 48% | 1017.8 hPa | 0 mm | - | - | - |
| 1777909201 | 27.22° C | 49% | 1018.1 hPa | 0 mm | - | - | - |
| 1777908901 | 27.22° C | 52% | 1018.1 hPa | 0 mm | - | - | - |
| 1777908601 | 27.22° C | 52% | 1018.1 hPa | 0 mm | - | - | - |
| 1777908059 | 27.78° C | 52% | 1018.2 hPa | 0 mm | - | - | - |
| 1777907760 | 27.22° C | 52% | 1018.3 hPa | 0 mm | - | - | - |
| 1777904751 | 25.56° C | 57% | 1018.2 hPa | 0 mm | - | - | - |
| 1777904453 | 25.56° C | 58% | 1018.2 hPa | 0 mm | - | - | - |
| 1777902647 | 25° C | 61% | 1017.9 hPa | 0 mm | - | - | - |
| 1777902346 | 25° C | 62% | 1017.8 hPa | 0 mm | - | - | - |
| 1777901145 | 24.44° C | 62% | 1017.7 hPa | 0 mm | - | - | - |
| 1777900239 | 23.89° C | 65% | 1017.5 hPa | 0 mm | - | - | - |
| 1777899937 | 23.89° C | 66% | 1017.5 hPa | 0 mm | - | - | - |
| 1777899335 | 23.33° C | 68% | 1017.5 hPa | 0 mm | - | - | - |
| 1777898432 | 22.22° C | 70% | 1017.4 hPa | 0 mm | - | - | - |
| 1777898130 | 21.67° C | 70% | 1017.4 hPa | 0 mm | - | - | - |
| 1777897829 | 21.67° C | 72% | 1017.3 hPa | 0 mm | - | - | - |
| 1777897528 | 21.11° C | 73% | 1017.3 hPa | 0 mm | - | - | - |
* Rain latest hour (hover to see other rain measurements)
** Current wind speed in m/s (hover to see current wind gust speed)